TimeEST,TemperatureF,Dew PointF,Humidity,Sea Level PressureIn,VisibilityMPH,Wind Direction,Wind SpeedMPH,Gust SpeedMPH,PrecipitationIn,Events,Conditions,WindDirDegrees,DateUTC
12:54 AM,19.9,7.0,57,30.43,10.0,Calm,Calm,-,N/A,,Clear,0,2013-01-27 05:54:00
1:54 AM,16.0,6.1,65,30.46,10.0,Calm,Calm,-,N/A,,Clear,0,2013-01-27 06:54:00
2:54 AM,14.0,7.0,74,30.47,10.0,Calm,Calm,-,N/A,,Clear,0,2013-01-27 07:54:00
3:54 AM,12.9,6.1,74,30.48,10.0,Calm,Calm,-,N/A,,Clear,0,2013-01-27 08:54:00
4:54 AM,10.9,7.0,84,30.48,10.0,Calm,Calm,-,N/A,,Clear,0,2013-01-27 09:54:00
5:54 AM,10.0,7.0,87,30.49,10.0,Calm,Calm,-,N/A,,Clear,0,2013-01-27 10:54:00
7:54 AM,17.1,9.0,71,30.53,10.0,Calm,Calm,-,N/A,,Clear,0,2013-01-27 12:54:00
8:54 AM,23.0,10.9,60,30.56,10.0,NNW,5.8,-,N/A,,Clear,330,2013-01-27 13:54:00
9:54 AM,26.1,12.9,58,30.58,10.0,NW,10.4,-,N/A,,Clear,310,2013-01-27 14:54:00
10:54 AM,28.0,12.9,53,30.58,10.0,NW,9.2,-,N/A,,Clear,320,2013-01-27 15:54:00
11:54 AM,30.0,12.9,49,30.55,10.0,Variable,6.9,-,N/A,,Clear,0,2013-01-27 16:54:00
12:54 PM,30.9,12.0,46,30.52,10.0,WNW,4.6,-,N/A,,Clear,290,2013-01-27 17:54:00
1:54 PM,33.1,12.0,42,30.51,10.0,NW,9.2,-,N/A,,Clear,310,2013-01-27 18:54:00
2:54 PM,34.0,10.9,38,30.50,10.0,Variable,4.6,-,N/A,,Clear,0,2013-01-27 19:54:00
3:54 PM,33.1,12.0,42,30.51,10.0,West,5.8,-,N/A,,Clear,280,2013-01-27 20:54:00
4:54 PM,33.1,12.0,42,30.50,10.0,West,3.5,-,N/A,,Clear,280,2013-01-27 21:54:00
5:54 PM,28.9,12.9,51,30.53,10.0,Calm,Calm,-,N/A,,Clear,0,2013-01-27 22:54:00
6:54 PM,25.0,14.0,63,30.53,10.0,Calm,Calm,-,N/A,,Clear,0,2013-01-27 23:54:00
7:54 PM,24.1,15.1,69,30.53,10.0,Calm,Calm,-,N/A,,Clear,0,2013-01-28 00:54:00
8:54 PM,21.0,15.1,78,30.52,10.0,Calm,Calm,-,N/A,,Clear,0,2013-01-28 01:54:00
9:54 PM,21.0,14.0,74,30.51,10.0,Calm,Calm,-,N/A,,Clear,0,2013-01-28 02:54:00
10:54 PM,21.0,14.0,74,30.51,9.0,Calm,Calm,-,N/A,,Clear,0,2013-01-28 03:54:00
11:54 PM,19.9,14.0,78,30.52,8.0,Calm,Calm,-,N/A,,Clear,0,2013-01-28 04:54:00